Terminal Aerodrome Forecast
Issued by NWS North Platte, NE

Home | Current Version | Previous Version | Text Only | Print | Product List | Glossary Off
Versions: 1 2 3 4 5 6 7 8 9 10 11 12 13 14 15 16

000
FTUS43 KLBF 150500
TAFVTN
TAF
KVTN 150529Z 1506/1606 03011KT P6SM OVC035
     FM150800 01005KT P6SM BKN025 BKN070
     FM151200 VRB05KT P6SM SCT015=

USA.gov is the U.S. government's official web portal to all federal, state and local government web resources and services.